[[{"header":{"parameterUnit":"m.s-1","parameterCategory":2,"la1":30.2991,"la2":30.254,"lo1":-89.0895,"lo2":-89.0444,"dy":0.0017,"dx":0.0017,"nx":28,"ny":28,"refTime":"2025-08-04T03:00:00:Z","depth":"0","parameterNumber":2,"parameterNumberName":"U-component_of_CURRENTS"},"data":[0,0,0,0,0,0,0,0,0,0,0,0,0,0,0,0,0,0,0,0,0,0,0,0,0,0,0,0,0,0,0,0,0,0,0,0,0,0,0,0,0,0,0,0,0,0,0,0,0,0,0,0,0,0,0,0,0,0,0.2692,0.2693,0,0.2693,0.2693,0.2692,0.2573,0.2571,0.2568,0.2566,0.2485,0.2485,0.2486,0,0,0,0,0,0,0,0,0,0,0,0,0,0.2556,0.2559,0.2692,0.2693,0.2694,0.2693,0.2693,0.2692,0.2574,0.2571,0.2568,0.2565,0.2485,0.2485,0.2486,0,0,0,0,0,0,0,0,0,0,0,0,0,0.2586,0.256,0.2692,0.2639,0.2634,0.2693,0.2693,0.2692,0.2575,0.2571,0.2567,0.2563,0.2485,0.2485,0.2486,0.2567,0,0,0.2487,0.2487,0,0,0,0,0,0,0,0,0.2585,0.2591,0.2646,0.2643,0.2638,0.2634,0.2615,0.2648,0.2576,0.2591,0.2566,0.2561,0.2534,0.2531,0.2532,0.2563,0.2559,0.2487,0.2487,0.2488,0.2488,0,0,0,0,0,0,0,0.2583,0.259,0.2687,0.2647,0.2642,0.2604,0.2604,0.2621,0.2579,0.2589,0.2582,0.2593,0.253,0.2532,0.2529,0.2558,0.2487,0.2488,0.2488,0.2488,0.2683,0.2688,0,0,0,0,0,0,0.2602,0.2589,0.2687,0.2687,0.2608,0.261,0.2609,0.2635,0.258,0.257,0.2596,0.2588,0.2533,0.2529,0.2526,0.2604,0.2488,0.2488,0.2488,0.2678,0.2684,0.2689,0,0,0,0,0,0,0.2599,0.2611,0.2687,0.2641,0.2649,0.2618,0.2646,0.2637,0.2625,0.2587,0.2573,0.2592,0.253,0.2525,0.2556,0.26,0.2488,0.2489,0.2672,0.268,0.2687,0.2769,0,0,0,0,0,0,0.2595,0.2611,0.2629,0.2644,0.2652,0.2734,0.265,0.264,0.2641,0.2629,0.2581,0.2569,0.2527,0.2557,0.2557,0.2598,0.2489,0.2666,0.2676,0.2684,0.276,0.2779,0.2794,0,0,0,0,0,0.2591,0.2639,0.2631,0.2642,0.2682,0.2737,0.2738,0.2697,0.2645,0.2665,0.2635,0.257,0.2615,0.2561,0.256,0.2602,0.2661,0.2673,0.2684,0.2753,0.2775,0.2794,0,0,0,0,0,0,0.2596,0.2633,0.2623,0.2681,0.2712,0.2719,0.2738,0.2711,0.2705,0.2684,0.2625,0.2616,0.2663,0.2648,0.2588,0.2698,0.2633,0.2644,0.2686,0.2707,0.2723,0.2675,0.2489,0,0,0,0,0,0.2613,0.265,0.2684,0.2733,0.2754,0.2748,0.276,0.2741,0.2743,0.2733,0.2705,0.2698,0.2719,0.2718,0.2735,0.2792,0.2783,0.283,0.2847,0.286,0.283,0.2926,0.2946,0.2726,0.2726,0.2725,0,0,0.2625,0.2656,0.2673,0.2736,0.2751,0.2792,0.2743,0.2782,0.2796,0.2732,0.2746,0.2755,0.2753,0.2811,0.2831,0.2791,0.2922,0.2875,0.2885,0.2846,0.2939,0.296,0.2978,0.2733,0.2732,0.2731,0,0,0.2676,0.2707,0.2748,0.2783,0.2827,0.2834,0.285,0.2871,0.2858,0.2902,0.2862,0.2895,0.2924,0.2925,0.293,0.3063,0.3015,0.3089,0.3117,0.3213,0.323,0.3245,0.3253,0.3268,0.309,0.309,0.309,0,0.2682,0.2745,0.2771,0.2822,0.2845,0.2856,0.2896,0.2913,0.2934,0.2932,0.2917,0.2971,0.2972,0.302,0.3065,0.3091,0.3115,0.3026,0.3229,0.3244,0.3257,0.3262,0.3277,0.3095,0.3095,0.3094,0.3094,0,0.2755,0.2803,0.2842,0.2897,0.293,0.2983,0.3008,0.3032,0.3025,0.3026,0.3077,0.3099,0.3111,0.3154,0.3139,0.3244,0.3219,0.3241,0.3158,0.3283,0.3282,0.3296,0.3103,0.3101,0.3099,0.3098,0,0,0.2769,0.2866,0.2876,0.2897,0.2969,0.2998,0.3047,0.3083,0.3081,0.3131,0.314,0.3212,0.3203,0.3212,0.3224,0.3303,0.3427,0.3313,0.3316,0.3283,0.3591,0.342,0.3418,0.3501,0.3504,0.3507,0.3545,0,0.281,0.2899,0.2936,0.3001,0.3044,0.3065,0.3098,0.3125,0.3143,0.3166,0.3202,0.3228,0.3235,0.3244,0.3333,0.3402,0.3471,0.341,0.3505,0.3505,0.3309,0.3432,0.3231,0.3236,0.3559,0.3561,0.3562,0,0.286,0.291,0.2979,0.3028,0.3044,0.3073,0.3095,0.3126,0.3166,0.3176,0.3214,0.3233,0.3315,0.333,0.3484,0.3452,0.352,0.3578,0.3582,0.3389,0.3361,0.3171,0.3249,0.3153,0.3583,0.3582,0.358,0,0.2844,0.2933,0.2976,0.3002,0.3066,0.3071,0.3089,0.312,0.3124,0.3175,0.3181,0.3277,0.3306,0.3445,0.3515,0.3536,0.3676,0.3723,0.3621,0.3607,0.3428,0.3391,0.3382,0.3852,0.3851,0.3851,0.3851,0,0.2881,0.2921,0.2964,0.2991,0.301,0.3046,0.3053,0.3079,0.3102,0.3105,0.3172,0.3179,0.3351,0.3425,0.3529,0.3573,0.3687,0.3616,0.3621,0.345,0.3417,0.3315,0.3298,0.3853,0.3852,0.3852,0.3852,0,0.29,0.2931,0.2976,0.3012,0.3011,0.3021,0.3025,0.3029,0.3046,0.3055,0.3069,0.3134,0.3212,0.3324,0.3511,0.354,0.352,0.3622,0.3348,0.3318,0.3121,0.3116,0.3013,0.2951,0.3535,0.3532,0.3528,0,0.2948,0.2968,0.2977,0.2976,0.2996,0.3,0.2999,0.3005,0.3002,0.3008,0.3011,0.3056,0.3078,0.3207,0.327,0.3368,0.3349,0.3224,0.3232,0.3061,0.3066,0.3013,0.2968,0.3038,0.3031,0.3025,0.302,0,0.3028,0.3004,0.3021,0.2996,0.2984,0.2981,0.2972,0.2956,0.2955,0.294,0.2915,0.2923,0.2955,0.2923,0.2983,0.3038,0.303,0.3106,0.305,0.275,0.2579,0.2534,0.3009,0.297,0.2975,0.2978,0.2981,0.2983,0.3076,0.3072,0.3042,0.3012,0.2993,0.296,0.291,0.2901,0.2861,0.2786,0.2833,0.2752,0.2667,0.2707,0.2733,0.2569,0.2688,0.2511,0.2541,0.252,0.2381,0.2676,0.2569,0.2571,0.2574,0.2576,0.2577,0,0.311,0.3075,0.3059,0.2984,0.2924,0.2923,0.2877,0.2783,0.2696,0.2666,0.2614,0.2432,0.2328,0.2265,0.212,0.2041,0.2038,0.197,0.1891,0.1903,0.2261,0.2156,0.1807,0.1807,0.1807,0.1807,0.1808,0.1808,0.3128,0.3081,0.3033,0.2916,0.2854,0.2704,0.2651,0.2544,0.2473,0.227,0.2113,0.2084,0.1971,0.1821,0.1664,0.1634,0.1591,0.144,0.1556,0.1826,0.188,0.1932,0.183,0.1418,0.1418,0.1095,0.1092,0.109]},{"header":{"parameterUnit":"m.s-1","parameterCategory":2,"la1":30.2991,"la2":30.254,"lo1":-89.0895,"lo2":-89.0444,"dy":0.0017,"dx":0.0017,"nx":28,"ny":28,"refTime":"2025-08-04T03:00:00:Z","depth":"0","parameterNumber":3,"parameterNumberName":"V-component_of_CURRENTS"},"data":[0,0,0,0,0,0,0,0,0,0,0,0,0,0,0,0,0,0,0,0,0,0,0,0,0,0,0,0,0,0,0,0,0,0,0,0,0,0,0,0,0,0,0,0,0,0,0,0,0,0,0,0,0,0,0,0,0,0,-0.0366,-0.0365,0,-0.0329,-0.0328,-0.0328,-0.03,-0.03,-0.03,-0.03,-0.0278,-0.0277,-0.0277,0,0,0,0,0,0,0,0,0,0,0,0,0,-0.0413,-0.0412,-0.0366,-0.0365,-0.0365,-0.0329,-0.0328,-0.0328,-0.03,-0.03,-0.03,-0.03,-0.0278,-0.0277,-0.0277,0,0,0,0,0,0,0,0,0,0,0,0,0,-0.0385,-0.0412,-0.0366,-0.0348,-0.0346,-0.0329,-0.0328,-0.0327,-0.03,-0.03,-0.03,-0.03,-0.0278,-0.0277,-0.0277,-0.0278,0,0,-0.0275,-0.0274,0,0,0,0,0,0,0,0,-0.0387,-0.0383,-0.0351,-0.0349,-0.0347,-0.0319,-0.0337,-0.0312,-0.03,-0.0317,-0.03,-0.03,-0.0294,-0.0292,-0.0284,-0.0277,-0.0276,-0.0275,-0.0274,-0.0274,-0.0274,0,0,0,0,0,0,0,-0.0389,-0.0385,-0.035,-0.035,-0.0348,-0.0341,-0.0337,-0.0332,-0.0307,-0.0315,-0.0313,-0.0311,-0.0292,-0.0285,-0.0283,-0.0276,-0.0275,-0.0274,-0.0274,-0.0273,-0.0257,-0.0257,0,0,0,0,0,0,-0.0395,-0.0387,-0.0352,-0.0349,-0.0367,-0.0341,-0.0336,-0.0328,-0.0307,-0.0303,-0.0311,-0.0309,-0.0286,-0.0284,-0.0283,-0.0295,-0.0274,-0.0273,-0.0273,-0.0257,-0.0257,-0.0257,0,0,0,0,0,0,-0.0396,-0.0392,-0.0353,-0.0368,-0.0363,-0.034,-0.0331,-0.0327,-0.0321,-0.0303,-0.03,-0.0309,-0.0286,-0.0283,-0.0281,-0.0294,-0.0273,-0.0272,-0.0257,-0.0257,-0.0257,-0.0313,0,0,0,0,0,0,-0.0397,-0.0392,-0.0393,-0.0368,-0.0362,-0.0362,-0.0332,-0.0327,-0.032,-0.0317,-0.0301,-0.0298,-0.0285,-0.0282,-0.028,-0.0293,-0.0272,-0.0257,-0.0257,-0.0257,-0.0311,-0.0315,-0.0318,0,0,0,0,0,-0.0399,-0.0412,-0.0393,-0.0389,-0.0362,-0.0363,-0.036,-0.0342,-0.032,-0.0332,-0.0308,-0.0298,-0.028,-0.0282,-0.028,-0.0292,-0.0257,-0.0257,-0.0257,-0.031,-0.0314,-0.0318,0,0,0,0,0,0,-0.0453,-0.041,-0.0388,-0.0392,-0.0383,-0.0359,-0.037,-0.0346,-0.0334,-0.033,-0.0303,-0.03,-0.0301,-0.0285,-0.0288,-0.0284,-0.0265,-0.0265,-0.0306,-0.031,-0.0313,-0.0291,-0.0271,0,0,0,0,0,-0.0459,-0.0445,-0.0417,-0.0422,-0.0419,-0.039,-0.0387,-0.0371,-0.0356,-0.035,-0.0334,-0.0313,-0.0299,-0.0296,-0.0285,-0.0288,-0.0213,-0.029,-0.0294,-0.0297,-0.0276,-0.0135,-0.0123,-0.0257,-0.0257,-0.0257,0,0,-0.0483,-0.0457,-0.0451,-0.0431,-0.042,-0.0429,-0.0388,-0.0392,-0.0393,-0.0351,-0.0354,-0.0329,-0.0301,-0.0303,-0.0302,-0.0293,-0.0231,-0.0297,-0.03,-0.0276,-0.0134,-0.012,-0.0108,-0.0257,-0.0257,-0.0257,0,0,-0.0532,-0.0502,-0.0508,-0.0502,-0.0485,-0.0465,-0.0467,-0.0444,-0.0429,-0.0428,-0.0388,-0.0359,-0.036,-0.0324,-0.0309,-0.032,-0.0253,-0.033,-0.0332,-0.0197,-0.0184,-0.0171,-0.0108,-0.0088,-0.0332,-0.0332,-0.0332,0,-0.0564,-0.0556,-0.0519,-0.0532,-0.0521,-0.0484,-0.0496,-0.0487,-0.0465,-0.0429,-0.0443,-0.0365,-0.0362,-0.0308,-0.0327,-0.0327,-0.0255,-0.0326,-0.0199,-0.0184,-0.017,-0.0107,-0.0085,-0.0335,-0.0335,-0.0334,-0.0334,0,-0.062,-0.0611,-0.0623,-0.0608,-0.0601,-0.0607,-0.058,-0.0564,-0.0536,-0.05,-0.0443,-0.0414,-0.0349,-0.0362,-0.0362,-0.0267,-0.0253,-0.0219,-0.0186,-0.016,-0.0096,-0.0073,-0.0339,-0.0338,-0.0337,-0.0336,0,0,-0.0692,-0.0659,-0.0664,-0.0636,-0.0629,-0.0613,-0.0619,-0.0572,-0.0511,-0.0509,-0.0412,-0.0422,-0.0361,-0.0338,-0.0309,-0.0222,-0.0108,-0.0192,-0.0184,-0.0126,0.0158,0.0056,0.0072,-0.0035,-0.0031,-0.0027,0.0145,0,-0.0741,-0.074,-0.0723,-0.0718,-0.0703,-0.0659,-0.0642,-0.0593,-0.0537,-0.0442,-0.0388,-0.0304,-0.0366,-0.0302,-0.0236,-0.0097,-0.0039,-0.016,0.0123,0.013,0.0041,0.0099,0.0033,0.0173,0.0169,0.0173,0.0176,0,-0.0801,-0.0774,-0.0768,-0.0688,-0.0678,-0.0674,-0.0565,-0.0543,-0.0425,-0.0368,-0.0284,-0.0216,-0.0105,-0.0142,0.0062,-0.0003,0.0055,0.0131,0.0142,0.0093,0.0075,0.0157,0.0217,0.0145,0.0213,0.021,0.0208,0,-0.0814,-0.0797,-0.0766,-0.0755,-0.0686,-0.0653,-0.061,-0.0511,-0.0419,-0.0287,-0.0166,-0.0069,0.0069,0.0154,0.0235,0.0193,0.0475,0.0452,0.0396,0.0388,0.0411,0.0396,0.0446,0.059,0.059,0.0589,0.0589,0,-0.0842,-0.0819,-0.0761,-0.0739,-0.0655,-0.0631,-0.0511,-0.0452,-0.0308,-0.0136,-0.0107,0.0068,0.0167,0.0314,0.0325,0.0431,0.0548,0.0416,0.0448,0.0378,0.0359,0.0359,0.0314,0.0596,0.0594,0.0593,0.0592,0,-0.084,-0.0826,-0.0759,-0.0682,-0.0651,-0.0581,-0.0433,-0.0315,-0.0218,0.0022,0.0085,0.0258,0.0429,0.0468,0.0656,0.059,0.0626,0.066,0.0516,0.0524,0.035,0.0303,0.042,0.0407,0.0647,0.0645,0.0644,0,-0.0817,-0.0796,-0.0692,-0.0612,-0.0569,-0.0465,-0.0357,-0.0269,-0.0121,0.0154,0.0307,0.0498,0.0645,0.0793,0.0721,0.0707,0.0644,0.0611,0.0494,0.0343,0.032,0.0289,0.0269,0.0498,0.0496,0.0494,0.0492,0,-0.0744,-0.0718,-0.064,-0.0479,-0.0368,-0.0242,-0.0093,0.0018,0.0183,0.0362,0.0627,0.0744,0.0833,0.0796,0.0702,0.0664,0.0521,0.057,0.0517,0.0283,0.0166,0.0166,0.0325,0.0477,0.0479,0.048,0.0481,0.0481,-0.0642,-0.0566,-0.0442,-0.0293,-0.0165,-0.0003,0.0098,0.026,0.0463,0.0719,0.0819,0.0983,0.0856,0.0709,0.062,0.0373,0.0427,0.0294,0.0275,0.0276,0.0186,0.0242,0.0353,0.0353,0.0354,0.0355,0.0355,0,-0.0461,-0.0385,-0.0241,-0.0062,0.0092,0.0119,0.0312,0.0401,0.0611,0.0819,0.0983,0.0979,0.08,0.0604,0.0261,0.0106,0.0079,0.0051,0.0024,0.0039,0.0197,0.0104,0.0041,0.0041,0.0042,0.0042,0.0042,0.0042,-0.0338,-0.0171,-0.0118,0.0153,0.0259,0.0418,0.0504,0.0614,0.0742,0.091,0.098,0.1024,0.0849,0.0315,-0.0036,-0.0105,-0.0154,-0.0199,-0.0169,-0.0077,-0.0055,-0.0034,-0.0132,-0.0243,-0.0243,-0.0326,-0.0327,-0.0328]}],[{"header":{"parameterUnit":"m.s-1","parameterCategory":2,"la1":30.2991,"la2":30.254,"lo1":-89.0895,"lo2":-89.0444,"dy":0.0017,"dx":0.0017,"nx":28,"ny":28,"refTime":"2025-08-04T03:00:00:Z","depth":"2","parameterNumber":2,"parameterNumberName":"U-component_of_CURRENTS"},"data":[0,0,0,0,0,0,0,0,0,0,0,0,0,0,0,0,0,0,0,0,0,0,0,0,0,0,0,0,0,0,0,0,0,0,0,0,0,0,0,0,0,0,0,0,0,0,0,0,0,0,0,0,0,0,0,0,0,0,0.1269,0.1268,0,0.1261,0.1262,0.1262,0.1294,0.1294,0.1294,0.1294,0.1397,0.1399,0.1402,0,0,0,0,0,0,0,0,0,0,0,0,0,0.1277,0.1278,0.1269,0.1268,0.1267,0.1261,0.1262,0.1262,0.1294,0.1294,0.1294,0.1294,0.1396,0.1399,0.1402,0,0,0,0,0,0,0,0,0,0,0,0,0,0.1279,0.1278,0.1269,0.1277,0.1277,0.1261,0.1262,0.1262,0.1293,0.1294,0.1294,0.1295,0.1395,0.1399,0.1402,0.1418,0,0,0.1414,0.1415,0,0,0,0,0,0,0,0,0.1279,0.128,0.1276,0.1276,0.1276,0.1272,0.1302,0.1317,0.1293,0.1295,0.1294,0.1295,0.136,0.1367,0.1374,0.1423,0.1427,0.1414,0.1416,0.1418,0.1419,0,0,0,0,0,0,0,0.1279,0.128,0.1274,0.1275,0.1275,0.1268,0.127,0.1305,0.1334,0.1295,0.1295,0.1282,0.1362,0.137,0.1376,0.1429,0.1414,0.1417,0.142,0.1421,0.1611,0.1614,0,0,0,0,0,0,0.1267,0.128,0.1274,0.1272,0.127,0.1268,0.127,0.1279,0.1331,0.1336,0.1282,0.1284,0.1363,0.1372,0.138,0.1485,0.1418,0.1421,0.1424,0.1608,0.1612,0.1615,0,0,0,0,0,0,0.1267,0.1267,0.1274,0.1269,0.1268,0.1267,0.1277,0.1279,0.1302,0.1318,0.1327,0.1304,0.1364,0.1375,0.143,0.1486,0.1423,0.1427,0.1605,0.1609,0.1613,0.1642,0,0,0,0,0,0,0.1268,0.1268,0.128,0.1269,0.1268,0.1286,0.1276,0.1278,0.1289,0.1292,0.134,0.1349,0.1365,0.1424,0.1434,0.149,0.1429,0.1601,0.1607,0.1612,0.1637,0.1646,0.1654,0,0,0,0,0,0.1269,0.1276,0.1281,0.128,0.1282,0.1286,0.1287,0.129,0.129,0.1312,0.134,0.1348,0.1466,0.1429,0.1439,0.1498,0.1599,0.1605,0.1612,0.1633,0.1644,0.1654,0,0,0,0,0,0,0.1279,0.1278,0.1284,0.1291,0.1298,0.1289,0.1292,0.1299,0.1337,0.1345,0.1366,0.1378,0.1457,0.1472,0.1431,0.1573,0.1542,0.155,0.1555,0.1566,0.1574,0.1624,0.1433,0,0,0,0,0,0.1286,0.1303,0.1296,0.1307,0.1303,0.1304,0.1306,0.1317,0.1335,0.1351,0.1383,0.1431,0.1489,0.1519,0.1568,0.163,0.1667,0.1683,0.1692,0.1698,0.175,0.1874,0.1898,0.1635,0.1635,0.1635,0,0,0.1294,0.1293,0.1304,0.1312,0.131,0.1318,0.131,0.1321,0.1354,0.1358,0.1419,0.146,0.1513,0.159,0.1628,0.1609,0.1775,0.1706,0.1711,0.1761,0.1883,0.1908,0.1931,0.164,0.1639,0.1638,0,0,0.1296,0.1314,0.1319,0.1326,0.1327,0.1338,0.1346,0.1357,0.1391,0.1438,0.1471,0.1555,0.1602,0.1681,0.1718,0.1808,0.1817,0.1814,0.1896,0.2013,0.2036,0.2057,0.2053,0.2074,0.1816,0.1817,0.1817,0,0.1309,0.1318,0.1322,0.1318,0.1334,0.1348,0.1366,0.1396,0.1436,0.1492,0.1465,0.1624,0.1662,0.1802,0.1838,0.1833,0.1856,0.1841,0.2025,0.2047,0.2068,0.2059,0.2082,0.1819,0.1818,0.1818,0.1818,0,0.1299,0.132,0.1319,0.1338,0.1356,0.1381,0.1411,0.1466,0.15,0.1542,0.1679,0.1738,0.1845,0.1869,0.1878,0.206,0.2007,0.2016,0.1993,0.2096,0.2079,0.2102,0.1822,0.1821,0.182,0.182,0,0,0.1333,0.1321,0.1332,0.1357,0.1382,0.1409,0.1472,0.1561,0.1633,0.1698,0.1805,0.1935,0.1986,0.2038,0.2079,0.2188,0.2319,0.2171,0.2175,0.2155,0.2497,0.2213,0.2209,0.2358,0.2364,0.2369,0.2393,0,0.1346,0.1353,0.1352,0.1409,0.1429,0.1478,0.1542,0.163,0.1697,0.18,0.1916,0.2019,0.204,0.2096,0.2221,0.2321,0.2396,0.2307,0.2414,0.2416,0.2145,0.2235,0.2118,0.2111,0.2415,0.2419,0.2422,0,0.1369,0.1372,0.1413,0.148,0.1495,0.1539,0.1683,0.1736,0.1874,0.1925,0.2059,0.2118,0.2313,0.2285,0.2529,0.2468,0.2502,0.2548,0.255,0.2312,0.2179,0.2079,0.2141,0.246,0.2457,0.2454,0.2451,0,0.143,0.1449,0.1499,0.1514,0.1566,0.1632,0.1681,0.18,0.1864,0.2014,0.2064,0.2274,0.2369,0.2516,0.2596,0.2589,0.2797,0.2786,0.2547,0.2521,0.2462,0.2419,0.2948,0.2948,0.2948,0.2948,0.2947,0,0.1481,0.1529,0.1536,0.1566,0.1661,0.1678,0.1799,0.187,0.1959,0.2064,0.2141,0.2255,0.2445,0.2555,0.2633,0.2636,0.2825,0.2587,0.2544,0.2449,0.2408,0.2764,0.2742,0.2948,0.2948,0.2948,0.2948,0,0.1564,0.1555,0.1624,0.1673,0.1694,0.1773,0.1834,0.1911,0.1973,0.2102,0.2148,0.2284,0.2413,0.2495,0.2695,0.263,0.2689,0.2622,0.2416,0.2346,0.2317,0.2297,0.2391,0.2382,0.2374,0.2368,0.2363,0,0.1621,0.1654,0.171,0.1745,0.1774,0.1851,0.1905,0.1945,0.2007,0.214,0.2211,0.2307,0.2372,0.243,0.2396,0.2374,0.2504,0.2165,0.2138,0.2329,0.2279,0.227,0.2261,0.2055,0.2048,0.2042,0.2037,0,0.1753,0.1771,0.1803,0.1872,0.193,0.1959,0.2023,0.2045,0.2118,0.215,0.2236,0.2268,0.2265,0.2172,0.2027,0.2018,0.2157,0.2023,0.24,0.2153,0.1999,0.1951,0.1958,0.1982,0.1988,0.1992,0.1995,0.1997,0.188,0.1935,0.199,0.2014,0.2061,0.208,0.2042,0.2085,0.2106,0.2073,0.2179,0.2087,0.2069,0.1761,0.1702,0.1604,0.1733,0.1676,0.1705,0.1737,0.1634,0.1469,0.1329,0.133,0.1332,0.1333,0.1334,0,0.2068,0.2097,0.2131,0.2154,0.2141,0.2157,0.2125,0.2008,0.1953,0.1953,0.1893,0.1655,0.1531,0.1514,0.1286,0.1179,0.1279,0.1127,0.1319,0.137,0.1416,0.1307,0.091,0.0909,0.0907,0.0906,0,0,0.2198,0.2255,0.2199,0.2203,0.2189,0.2086,0.2003,0.185,0.1755,0.1565,0.1448,0.1437,0.1471,0.1194,0.1125,0.1006,0.1195,0.0953,0.1297,0.1579,0.1625,0.1727,0.1609,0,0,0,0,0]},{"header":{"parameterUnit":"m.s-1","parameterCategory":2,"la1":30.2991,"la2":30.254,"lo1":-89.0895,"lo2":-89.0444,"dy":0.0017,"dx":0.0017,"nx":28,"ny":28,"refTime":"2025-08-04T03:00:00:Z","depth":"2","parameterNumber":3,"parameterNumberName":"V-component_of_CURRENTS"},"data":[0,0,0,0,0,0,0,0,0,0,0,0,0,0,0,0,0,0,0,0,0,0,0,0,0,0,0,0,0,0,0,0,0,0,0,0,0,0,0,0,0,0,0,0,0,0,0,0,0,0,0,0,0,0,0,0,0,0,0.0129,0.0129,0,0.012,0.012,0.012,0.0109,0.0109,0.0108,0.0108,0.0099,0.0099,0.01,0,0,0,0,0,0,0,0,0,0,0,0,0,0.0103,0.0104,0.0129,0.0129,0.0128,0.012,0.012,0.012,0.0109,0.0109,0.0108,0.0108,0.0099,0.0099,0.01,0,0,0,0,0,0,0,0,0,0,0,0,0,0.0108,0.0105,0.0129,0.0121,0.012,0.012,0.012,0.012,0.0109,0.0109,0.0108,0.0108,0.0099,0.0099,0.01,0.0109,0,0,0.01,0.01,0,0,0,0,0,0,0,0,0.0108,0.0109,0.0122,0.0121,0.012,0.0114,0.0108,0.0116,0.0109,0.0115,0.0108,0.0107,0.0104,0.0103,0.0105,0.0109,0.0108,0.01,0.01,0.01,0.01,0,0,0,0,0,0,0,0.0108,0.0109,0.0127,0.0122,0.0121,0.0106,0.0107,0.0109,0.0113,0.0114,0.0113,0.011,0.0103,0.0105,0.0104,0.0108,0.01,0.01,0.01,0.01,0.0158,0.0159,0,0,0,0,0,0,0.0108,0.0109,0.0127,0.0126,0.0111,0.0107,0.0108,0.0118,0.0113,0.0111,0.011,0.0109,0.0105,0.0104,0.0104,0.0175,0.01,0.01,0.01,0.0157,0.0158,0.016,0,0,0,0,0,0,0.0108,0.0111,0.0127,0.0115,0.0116,0.0108,0.0119,0.0118,0.0115,0.011,0.0108,0.0108,0.0104,0.0104,0.0107,0.0172,0.01,0.01,0.0155,0.0157,0.0159,0.0278,0,0,0,0,0,0,0.0108,0.0111,0.0116,0.0116,0.0117,0.0137,0.0119,0.0118,0.0113,0.0112,0.0108,0.0106,0.0104,0.0107,0.0107,0.0171,0.01,0.0153,0.0156,0.0158,0.0272,0.0284,0.0294,0,0,0,0,0,0.0107,0.0129,0.0117,0.0118,0.0126,0.0137,0.0137,0.0129,0.0113,0.0123,0.0113,0.0106,0.0126,0.0108,0.0108,0.0173,0.0152,0.0155,0.0158,0.0267,0.0281,0.0294,0,0,0,0,0,0,0.0117,0.0129,0.0116,0.0138,0.0136,0.0135,0.0141,0.0129,0.0128,0.0125,0.0112,0.0112,0.0147,0.0129,0.0109,0.0195,0.0143,0.0147,0.0226,0.024,0.025,0.0326,0.01,0,0,0,0,0,0.0121,0.0142,0.014,0.0154,0.0155,0.0143,0.0143,0.014,0.0138,0.0136,0.0131,0.0135,0.0162,0.0172,0.0181,0.0216,0.0204,0.026,0.0271,0.028,0.034,0.0373,0.0394,0.0171,0.0171,0.0171,0,0,0.0122,0.0135,0.0141,0.0157,0.0153,0.0188,0.0144,0.0153,0.0196,0.0136,0.0182,0.0167,0.0176,0.0227,0.0243,0.022,0.032,0.0284,0.0293,0.0349,0.0379,0.0401,0.0421,0.0173,0.0173,0.0172,0,0,0.0152,0.0151,0.0181,0.0195,0.0201,0.021,0.0212,0.0211,0.0225,0.0249,0.0239,0.0272,0.0269,0.0327,0.0348,0.0424,0.0374,0.04,0.0528,0.0558,0.0578,0.0595,0.0541,0.0553,0.0411,0.0411,0.0412,0,0.015,0.02,0.0187,0.0229,0.0262,0.0227,0.0281,0.0296,0.0297,0.0342,0.0277,0.0355,0.0346,0.0476,0.05,0.0462,0.0421,0.0478,0.0576,0.0594,0.061,0.055,0.0562,0.0417,0.0417,0.0416,0.0416,0,0.0206,0.0252,0.0273,0.0329,0.036,0.0396,0.0423,0.0457,0.0452,0.0475,0.0562,0.0547,0.0605,0.0602,0.0574,0.0703,0.0612,0.0581,0.055,0.064,0.0569,0.0579,0.0426,0.0424,0.0422,0.0421,0,0,0.0186,0.0296,0.0299,0.0367,0.0424,0.0463,0.0554,0.0645,0.0724,0.0721,0.0828,0.088,0.0859,0.0884,0.0855,0.0889,0.093,0.0784,0.0782,0.0743,0.0921,0.0746,0.0738,0.0896,0.09,0.0904,0.0801,0,0.0232,0.0353,0.0396,0.0522,0.0594,0.0638,0.074,0.082,0.0853,0.0935,0.097,0.1026,0.0968,0.0975,0.1019,0.094,0.0972,0.0957,0.0832,0.0828,0.0675,0.0753,0.0734,0.0634,0.0811,0.0812,0.0814,0,0.0268,0.036,0.0491,0.0671,0.0705,0.0769,0.094,0.1023,0.1142,0.1167,0.1244,0.1225,0.1294,0.1204,0.1192,0.1163,0.1085,0.1021,0.1014,0.0839,0.0677,0.0586,0.0646,0.083,0.0829,0.0827,0.0826,0,0.0278,0.0432,0.0553,0.0603,0.0782,0.086,0.0949,0.1085,0.1167,0.1289,0.1308,0.1404,0.1377,0.1359,0.1209,0.1193,0.1145,0.1098,0.0888,0.0869,0.0833,0.0805,0.115,0.115,0.115,0.1151,0.1151,0,0.0333,0.0429,0.0558,0.0628,0.0791,0.0889,0.1049,0.1153,0.1267,0.1347,0.1399,0.1431,0.141,0.1355,0.1263,0.1075,0.1183,0.0945,0.0865,0.0858,0.0835,0.1004,0.0988,0.1147,0.1148,0.1148,0.1149,0,0.034,0.0423,0.0578,0.0752,0.0798,0.0911,0.1072,0.1181,0.1262,0.1347,0.1368,0.1423,0.1338,0.128,0.1201,0.1078,0.0963,0.0886,0.0828,0.0745,0.0649,0.0641,0.0648,0.0642,0.0637,0.0632,0.0629,0,0.0359,0.0426,0.0625,0.0714,0.0786,0.0935,0.1038,0.1169,0.1241,0.1317,0.1337,0.1302,0.1275,0.1079,0.0913,0.0735,0.0818,0.0578,0.0589,0.0693,0.0615,0.0615,0.0613,0.0556,0.0552,0.0548,0.0546,0,0.039,0.0446,0.0587,0.0726,0.0837,0.099,0.1101,0.1155,0.1267,0.1306,0.1311,0.129,0.109,0.0912,0.0662,0.0552,0.0605,0.0495,0.0684,0.0663,0.0592,0.0518,0.0524,0.0517,0.0519,0.0522,0.0523,0.0524,0.0395,0.0475,0.0599,0.0768,0.0885,0.099,0.1083,0.1163,0.1244,0.1265,0.1251,0.1185,0.1023,0.0659,0.0476,0.0287,0.0319,0.0277,0.0295,0.0315,0.03,0.0223,0.007,0.007,0.0071,0.0071,0.0071,0,0.0391,0.0468,0.0614,0.0791,0.0901,0.0957,0.109,0.1146,0.1199,0.1203,0.1182,0.0964,0.0769,0.0603,0.0257,0.0051,0.0124,0.0025,0.019,0.0216,0.024,0.0231,-0.0022,-0.0022,-0.0023,-0.0023,0,0,0.0383,0.0494,0.059,0.0748,0.0851,0.0931,0.1001,0.1066,0.109,0.108,0.1032,0.0987,0.0778,0.0529,0.0304,0.0132,0.0221,0.0099,0.0183,0.0425,0.0452,0.0379,0.039,0,0,0,0,0]}],[{"header":{"parameterUnit":"m.s-1","parameterCategory":2,"la1":30.2991,"la2":30.254,"lo1":-89.0895,"lo2":-89.0444,"dy":0.0017,"dx":0.0017,"nx":28,"ny":28,"refTime":"2025-08-04T03:00:00:Z","depth":"4","parameterNumber":2,"parameterNumberName":"U-component_of_CURRENTS"},"data":[0,0,0,0,0,0,0,0,0,0,0,0,0,0,0,0,0,0,0,0,0,0,0,0,0,0,0,0,0,0,0,0,0,0,0,0,0,0,0,0,0,0,0,0,0,0,0,0,0,0,0,0,0,0,0,0,0,0,0.0145,0.0145,0,0.0187,0.0187,0.0187,0.0242,0.0243,0.0244,0.0245,0.0201,0.0199,0.0196,0,0,0,0,0,0,0,0,0,0,0,0,0,0.0151,0.015,0.0145,0.0146,0.0146,0.0187,0.0187,0.0187,0.0242,0.0243,0.0245,0.0246,0.0202,0.0199,0.0196,0,0,0,0,0,0,0,0,0,0,0,0,0,0.0164,0.015,0.0145,0.018,0.0184,0.0186,0.0187,0.0187,0.0242,0.0243,0.0245,0.0246,0.0202,0.0199,0.0196,0.0142,0,0,0.0186,0.0184,0,0,0,0,0,0,0,0,0.0163,0.0163,0.0174,0.0178,0.0182,0.0213,0.0173,0.0169,0.0241,0.0217,0.0245,0.0247,0.0197,0.0194,0.0196,0.014,0.0138,0.0185,0.0183,0.0182,0.0181,0,0,0,0,0,0,0,0.0162,0.0162,0.0159,0.0175,0.018,0.0207,0.021,0.0173,0.0194,0.0219,0.0224,0.0232,0.0199,0.02,0.0196,0.0137,0.0186,0.0183,0.0181,0.0179,0.0175,0.0177,0,0,0,0,0,0,0.0157,0.0161,0.0158,0.0161,0.0179,0.0206,0.0209,0.0199,0.0196,0.0199,0.023,0.0234,0.0204,0.0199,0.0194,0.0227,0.0182,0.0179,0.0177,0.0173,0.0175,0.0177,0,0,0,0,0,0,0.0157,0.0156,0.0156,0.0165,0.0167,0.0204,0.0193,0.0199,0.0222,0.0206,0.0207,0.0249,0.0206,0.0199,0.0199,0.0222,0.0177,0.0174,0.0171,0.0174,0.0176,0.0229,0,0,0,0,0,0,0.0156,0.0155,0.0147,0.0164,0.0167,0.0163,0.0191,0.0199,0.0224,0.023,0.0221,0.0218,0.0206,0.0204,0.0196,0.0216,0.0172,0.0168,0.0172,0.0175,0.0225,0.0233,0.024,0,0,0,0,0,0.0156,0.0136,0.0146,0.0146,0.0154,0.0163,0.0167,0.0198,0.0223,0.0226,0.0243,0.0219,0.0222,0.0202,0.0192,0.0212,0.0167,0.0171,0.0175,0.0221,0.0231,0.024,0,0,0,0,0,0,0.0129,0.014,0.0152,0.0134,0.0152,0.0174,0.0178,0.0203,0.0218,0.0226,0.0224,0.0221,0.0232,0.0216,0.0196,0.0228,0.0196,0.0199,0.0235,0.0244,0.0252,0.0307,0.0169,0,0,0,0,0,0.0119,0.0108,0.0129,0.0115,0.0125,0.0154,0.0164,0.0185,0.0201,0.0212,0.0211,0.0221,0.0236,0.0237,0.0229,0.0228,0.0202,0.0244,0.0251,0.0258,0.03,0.0286,0.0296,0.0191,0.0191,0.0191,0,0,0.0101,0.0109,0.0101,0.011,0.0126,0.014,0.0164,0.0176,0.0205,0.0198,0.0225,0.0231,0.0242,0.0259,0.0264,0.0251,0.0263,0.0263,0.0269,0.0308,0.0291,0.0301,0.031,0.0194,0.0193,0.0193,0,0,0.007,0.0071,0.0061,0.0078,0.0104,0.0126,0.0134,0.016,0.0193,0.0216,0.0237,0.0274,0.0264,0.0301,0.0317,0.0361,0.0299,0.0349,0.0433,0.0418,0.0426,0.0433,0.0358,0.0359,0.0359,0.0359,0.0359,0,0.0061,0.0052,0.006,0.0067,0.0097,0.0124,0.0145,0.0168,0.0195,0.0243,0.0232,0.0307,0.03,0.0376,0.0412,0.0379,0.0339,0.0389,0.0426,0.0433,0.044,0.0362,0.0361,0.0362,0.0362,0.0362,0.0361,0,0.0029,0.0037,0.0035,0.0061,0.0084,0.0103,0.0147,0.018,0.0226,0.0271,0.0351,0.0363,0.0434,0.0426,0.0439,0.0502,0.0444,0.0426,0.0398,0.0453,0.0367,0.0365,0.0367,0.0365,0.0365,0.0364,0,0,0.001,0.0016,0.0025,0.0061,0.0097,0.0126,0.0172,0.0255,0.0332,0.0358,0.046,0.0514,0.0556,0.0582,0.059,0.0592,0.0583,0.0547,0.0545,0.0464,0.0503,0.0524,0.0523,0.0563,0.0565,0.0566,0.0403,0,0.001,0.0023,0.0032,0.0086,0.0117,0.0172,0.0231,0.0306,0.0375,0.0463,0.0523,0.0604,0.0602,0.0653,0.0662,0.0612,0.0592,0.0627,0.0472,0.0467,0.0474,0.0529,0.0571,0.0401,0.0401,0.0401,0.0401,0,0.0002,0.0028,0.0063,0.0153,0.0177,0.0221,0.0367,0.0421,0.054,0.0595,0.0692,0.0729,0.0792,0.076,0.0713,0.0731,0.0648,0.0582,0.0573,0.0592,0.0491,0.035,0.0397,0.0398,0.0398,0.0398,0.0398,0,0.0019,0.0068,0.0111,0.0135,0.022,0.0292,0.0364,0.0485,0.0562,0.0697,0.0744,0.0825,0.086,0.0797,0.0695,0.0709,0.0578,0.0563,0.0488,0.0482,0.0481,0.0476,0.052,0.0521,0.0521,0.0521,0.0522,0,0.0032,0.0079,0.0137,0.0169,0.0283,0.0341,0.0476,0.0561,0.0677,0.0761,0.083,0.0876,0.0877,0.0808,0.0702,0.0589,0.0576,0.053,0.0474,0.0497,0.0497,0.0475,0.0472,0.0515,0.0517,0.0518,0.0519,0,0.0041,0.0059,0.0135,0.0241,0.0285,0.0384,0.0525,0.0601,0.0712,0.0811,0.0854,0.092,0.0869,0.0785,0.0664,0.0602,0.0474,0.0416,0.0406,0.0344,0.0379,0.038,0.0365,0.0365,0.0365,0.0365,0.0365,0,0.0031,0.0069,0.0182,0.0229,0.0287,0.0419,0.0485,0.062,0.0683,0.0812,0.0832,0.0864,0.088,0.0696,0.0629,0.0443,0.0422,0.0338,0.0447,0.0433,0.0377,0.0379,0.038,0.0365,0.0365,0.0365,0.0365,0,0.0057,0.0103,0.016,0.0235,0.0316,0.0406,0.0515,0.0563,0.0695,0.0778,0.0839,0.0842,0.0786,0.072,0.0582,0.0439,0.0407,0.0339,0.034,0.0442,0.0433,0.0378,0.0379,0.0365,0.0365,0.0365,0.0365,0,0.0085,0.0137,0.0188,0.0287,0.0334,0.0387,0.0446,0.0523,0.0613,0.0762,0.0767,0.0764,0.0809,0.071,0.0553,0.0468,0.0481,0.045,0.0445,0.0444,0.055,0.0555,0.0504,0,0,0,0,0,0.0126,0.0195,0.0237,0.032,0.0329,0.0379,0.0454,0.0497,0.0612,0.0655,0.0738,0.0696,0.0647,0.0623,0.0545,0.0535,0.0426,0.0439,0.0375,0.0367,0.0367,0.0487,0,0,0,0,0,0,0.0148,0.0204,0.0252,0.0308,0.0349,0.0372,0.042,0.0477,0.0515,0.0629,0.0589,0.0686,0.0601,0.0699,0.0552,0.0535,0.0484,0.0442,0.0441,0.0367,0.0367,0.0367,0.049,0,0,0,0,0]},{"header":{"parameterUnit":"m.s-1","parameterCategory":2,"la1":30.2991,"la2":30.254,"lo1":-89.0895,"lo2":-89.0444,"dy":0.0017,"dx":0.0017,"nx":28,"ny":28,"refTime":"2025-08-04T03:00:00:Z","depth":"4","parameterNumber":3,"parameterNumberName":"V-component_of_CURRENTS"},"data":[0,0,0,0,0,0,0,0,0,0,0,0,0,0,0,0,0,0,0,0,0,0,0,0,0,0,0,0,0,0,0,0,0,0,0,0,0,0,0,0,0,0,0,0,0,0,0,0,0,0,0,0,0,0,0,0,0,0,0.0218,0.0218,0,0.0214,0.0214,0.0214,0.0205,0.0204,0.0204,0.0204,0.0259,0.0261,0.0262,0,0,0,0,0,0,0,0,0,0,0,0,0,0.0187,0.0187,0.0218,0.0218,0.0218,0.0214,0.0214,0.0214,0.0205,0.0204,0.0204,0.0204,0.0259,0.026,0.0262,0,0,0,0,0,0,0,0,0,0,0,0,0,0.0193,0.0188,0.0218,0.0213,0.0213,0.0214,0.0214,0.0214,0.0205,0.0204,0.0204,0.0204,0.0258,0.026,0.0263,0.0282,0,0,0.027,0.0271,0,0,0,0,0,0,0,0,0.0193,0.0194,0.0214,0.0214,0.0213,0.021,0.0223,0.024,0.0205,0.0207,0.0204,0.0204,0.0249,0.0252,0.025,0.0285,0.0287,0.027,0.0272,0.0273,0.0273,0,0,0,0,0,0,0,0.0192,0.0194,0.0216,0.0214,0.0213,0.0201,0.0202,0.0226,0.023,0.0207,0.0206,0.0207,0.0249,0.0248,0.0251,0.0288,0.027,0.0272,0.0274,0.0275,0.0288,0.0286,0,0,0,0,0,0,0.0196,0.0194,0.0216,0.0216,0.0203,0.0202,0.0203,0.0211,0.0228,0.0231,0.0207,0.0206,0.0244,0.0249,0.0253,0.0264,0.0273,0.0275,0.0276,0.0289,0.0287,0.0286,0,0,0,0,0,0,0.0195,0.0198,0.0216,0.0204,0.0206,0.0203,0.0212,0.0211,0.0214,0.0228,0.0231,0.0211,0.0244,0.025,0.0267,0.0267,0.0276,0.0278,0.029,0.0288,0.0287,0.0294,0,0,0,0,0,0,0.0195,0.0198,0.021,0.0205,0.0207,0.0229,0.0212,0.0211,0.0214,0.0214,0.0233,0.0237,0.0244,0.0263,0.0269,0.027,0.028,0.0291,0.0289,0.0287,0.0295,0.0293,0.0291,0,0,0,0,0,0.0194,0.0216,0.021,0.0213,0.0222,0.023,0.023,0.0226,0.0215,0.0225,0.0222,0.0237,0.0253,0.0265,0.0272,0.0274,0.0292,0.029,0.0287,0.0296,0.0293,0.0291,0,0,0,0,0,0,0.0213,0.0217,0.0211,0.0234,0.0235,0.0229,0.0241,0.023,0.0235,0.0234,0.0238,0.0243,0.0252,0.0258,0.027,0.0265,0.027,0.0268,0.0273,0.0271,0.0269,0.0255,0.0282,0,0,0,0,0,0.0221,0.0239,0.0234,0.0255,0.0256,0.0247,0.025,0.0244,0.0245,0.0246,0.0256,0.0254,0.0246,0.0256,0.0259,0.0273,0.0236,0.027,0.0268,0.0266,0.0256,0.0167,0.0155,0.0278,0.0278,0.0278,0,0,0.0233,0.024,0.0248,0.026,0.026,0.0265,0.0249,0.026,0.0254,0.0254,0.0262,0.0257,0.0246,0.0249,0.0253,0.0258,0.0217,0.0263,0.0262,0.0253,0.0163,0.0151,0.014,0.0276,0.0277,0.0277,0,0,0.0264,0.0273,0.0292,0.0296,0.03,0.029,0.0293,0.029,0.0281,0.029,0.0266,0.0243,0.0276,0.0236,0.0225,0.021,0.0206,0.023,0.0218,0.0132,0.0121,0.0111,0.0073,0.006,0.0232,0.0232,0.0232,0,0.0275,0.0299,0.03,0.0316,0.0314,0.0301,0.0307,0.0299,0.0299,0.0278,0.0298,0.0255,0.0253,0.0199,0.0197,0.0204,0.0181,0.0236,0.0129,0.0118,0.0107,0.0071,0.0056,0.0232,0.0232,0.0232,0.0232,0,0.0314,0.0331,0.0345,0.0354,0.0352,0.0363,0.0341,0.0332,0.0322,0.0303,0.0264,0.0243,0.0216,0.0204,0.0209,0.0132,0.0151,0.0135,0.0138,0.0095,0.006,0.0044,0.0232,0.0232,0.0232,0.0232,0,0,0.0339,0.0363,0.037,0.0366,0.0369,0.0365,0.0349,0.0315,0.029,0.028,0.0237,0.0201,0.019,0.0172,0.0155,0.0081,-0.0001,0.0095,0.0091,0.0064,-0.0148,-0.0075,-0.0085,-0.0023,-0.0026,-0.0029,-0.0133,0,0.0364,0.0393,0.0397,0.0404,0.0406,0.0378,0.0367,0.0331,0.0303,0.0268,0.02,0.0192,0.0179,0.0187,0.0098,0.002,-0.0046,0.0031,-0.0108,-0.0112,-0.0039,-0.0104,-0.004,-0.0145,-0.0148,-0.0151,-0.0153,0,0.0398,0.0407,0.0428,0.0408,0.0406,0.0418,0.0364,0.0359,0.0295,0.0275,0.0221,0.0201,0.0107,0.0114,-0.0071,-0.0009,-0.007,-0.0139,-0.0145,-0.0096,-0.007,-0.0102,-0.0182,-0.018,-0.0178,-0.0176,-0.0174,0,0.0399,0.0419,0.0432,0.0434,0.0423,0.042,0.042,0.037,0.0362,0.031,0.029,0.0178,0.0157,0.0014,-0.0093,-0.0075,-0.0298,-0.03,-0.0301,-0.0295,-0.0329,-0.0318,-0.0438,-0.0438,-0.0437,-0.0437,-0.0437,0,0.041,0.042,0.0449,0.0452,0.0463,0.0457,0.0461,0.0433,0.0413,0.0396,0.0328,0.0274,0.0135,0.0009,-0.0113,-0.0251,-0.0316,-0.0319,-0.0334,-0.0318,-0.0305,-0.0339,-0.0326,-0.0441,-0.044,-0.0439,-0.0439,0,0.0408,0.0434,0.0451,0.0461,0.0472,0.0496,0.0525,0.0513,0.0503,0.0474,0.0479,0.0357,0.0202,0.0044,-0.017,-0.0239,-0.0402,-0.0426,-0.0373,-0.0379,-0.0332,-0.0318,-0.0453,-0.0452,-0.0451,-0.045,-0.0449,0,0.0397,0.0417,0.0463,0.0491,0.0513,0.0552,0.0563,0.0571,0.0573,0.0504,0.0482,0.0368,0.0268,0.0002,-0.0163,-0.038,-0.0392,-0.0441,-0.0416,-0.0342,-0.0343,-0.033,-0.0317,-0.0447,-0.0447,-0.0447,-0.0446,0,0.0373,0.0422,0.0434,0.0501,0.0542,0.0575,0.0614,0.0618,0.0615,0.059,0.0505,0.0388,0.0218,0.0025,-0.0106,-0.0281,-0.0406,-0.043,-0.0433,-0.0411,-0.0336,-0.0335,-0.0324,-0.0442,-0.0443,-0.0443,-0.0444,0,0.037,0.0396,0.0447,0.0501,0.0554,0.0601,0.0607,0.0612,0.0624,0.0575,0.0536,0.0346,0.0266,0.0074,-0.0097,-0.021,-0.0236,-0.0249,-0.0263,-0.0269,-0.0174,-0.0051,-0.0099,0,0,0,0,0,0.0372,0.0412,0.0442,0.0513,0.0555,0.0603,0.0632,0.0634,0.0625,0.0587,0.0588,0.0432,0.0225,0.01,-0.0001,-0.0094,-0.0272,-0.0214,-0.0298,-0.0421,-0.0425,-0.0339,0,0,0,0,0,0,0.0387,0.0427,0.0441,0.0506,0.0556,0.0612,0.0637,0.0621,0.0616,0.059,0.0469,0.0445,0.0219,0.0292,0.0008,-0.0033,-0.0089,-0.0312,-0.0313,-0.0418,-0.0422,-0.0426,-0.0339,0,0,0,0,0]}]]